Weather History for KGIC - January, 2014

Change the Weather History Date:

Friday, January 17, 2014

  Actual Average (KLWS) Record (KLWS)
Temperature  
Mean Temperature 32 °F 36 °F  
Max Temperature 41 °F 42 °F 61 °F (1919)
Min Temperature 23 °F 30 °F -15 °F (1930)
Degree Days  
Heating Degree Days 33 29  
Month to date heating degree days 514  
Since 1 July heating degree days 2722  
Cooling Degree Days 0 0  
Month to date cooling degree days 0  
Year to date cooling degree days 0  
Moisture  
Dew Point 24 °F    
Average Humidity 75    
Maximum Humidity 86    
Minimum Humidity 53    
Precipitation  
Precipitation 0.00 in 0.03 in 0.60 in (1885)
Month to date precipitation 0.61  
Year to date precipitation 0.61  
Snow  
Snow 0.00 in 0.00 in 5.00 in (1937)
Month to date snowfall 1.4  
Since 1 July snowfall 6.7  
Snow Depth -    
Sea Level Pressure  
Sea Level Pressure 30.36 in    
Wind  
Wind Speed 3 mph (SE)    
Max Wind Speed 12 mph    
Max Gust Speed -    
Visibility 9 miles    
Events      
T = Trace of Precipitation, MM = Missing Value Source: NWS Daily Summary

Daily Weather History Graph

Daily Weather History Graph

Search for Another Location

Airport or City:

Trip Planner

Search our weather history database for the weather conditions in past years. The results will help you decide how hot, cold, wet, or windy it might be!

Date:

Astronomy

Jan. 17, 2014 Rise Set
Actual Time 7:20 AM PST 4:28 PM PST
Civil Twilight 6:47 AM PST 5:02 PM PST
Nautical Twilight 6:10 AM PST 5:38 PM PST
Astronomical Twilight 5:35 AM PST 6:14 PM PST
Moon 6:27 PM PST (1/17) 7:43 AM PST (1/17)
Length of Visible Light 10h 14m
Length of Day
9h 08m
Full, 98% of the Moon is Illuminated
Jan 17
Full
Jan 23
Last Quarter
Jan 30
New
Feb 6
First Quarter
Feb 14
Full

Hourly Weather History & Observations

Time (PST) Temp. Windchill Dew Point Humidity Pressure Visibility Wind Dir Wind Speed Gust Speed Precip Events Conditions
12:15 AM 27.0 °F - 22.8 °F 84% 30.40 in 7.0 mi Calm Calm - N/A   Clear
12:35 AM 27.7 °F - 23.2 °F 83% 30.40 in 10.0 mi Calm Calm - N/A   Clear
12:55 AM 27.7 °F 20.4 °F 22.8 °F 82% 30.40 in 7.0 mi SW 6.9 mph - N/A   Clear
1:15 AM 26.1 °F - 22.3 °F 86% 30.40 in 10.0 mi Calm Calm - N/A   Clear
1:35 AM 26.4 °F 17.3 °F 22.5 °F 85% 30.40 in 10.0 mi SW 9.2 mph - N/A   Clear
1:55 AM 26.8 °F 17.7 °F 22.5 °F 84% 30.40 in 10.0 mi SW 9.2 mph - N/A   Clear
2:15 AM 27.5 °F - 22.6 °F 82% 30.40 in 10.0 mi Calm Calm - N/A   Clear
2:35 AM 28.4 °F 23.3 °F 22.6 °F 79% 30.40 in 10.0 mi SSW 4.6 mph - N/A   Clear
2:55 AM 25.7 °F 20.1 °F 20.8 °F 82% 30.39 in 7.0 mi SW 4.6 mph - N/A   Clear
3:15 AM 26.8 °F - 21.6 °F 81% 30.38 in 10.0 mi Calm Calm - N/A   Clear
3:35 AM 27.1 °F - 21.9 °F 81% 30.38 in 10.0 mi Calm Calm - N/A   Clear
3:55 AM 27.7 °F 22.4 °F 21.7 °F 78% 30.39 in 10.0 mi WSW 4.6 mph - N/A   Clear
4:15 AM 28.0 °F 21.7 °F 22.1 °F 78% 30.39 in 10.0 mi SE 5.8 mph - N/A   Clear
4:35 AM 28.0 °F 22.8 °F 22.5 °F 80% 30.38 in 10.0 mi ESE 4.6 mph - N/A   Clear
4:55 AM 26.6 °F - 21.6 °F 81% 30.38 in 7.0 mi Calm Calm - N/A   Clear
5:15 AM 26.2 °F - 21.4 °F 82% 30.37 in 7.0 mi Calm Calm - N/A   Clear
5:35 AM 24.3 °F - 20.3 °F 85% 30.37 in 10.0 mi Calm Calm - N/A   Clear
5:55 AM 24.3 °F - 20.3 °F 85% 30.37 in 10.0 mi Calm Calm - N/A   Clear
6:15 AM 24.3 °F - 20.5 °F 85% 30.37 in 10.0 mi Calm Calm - N/A   Clear
6:35 AM 26.6 °F 22.6 °F 21.2 °F 80% 30.37 in 10.0 mi ENE 3.5 mph - N/A   Clear
6:55 AM 26.1 °F 20.5 °F 20.7 °F 80% 30.38 in 10.0 mi East 4.6 mph - N/A   Clear
7:15 AM 25.9 °F 20.3 °F 21.0 °F 82% 30.37 in 10.0 mi SE 4.6 mph - N/A   Clear
7:35 AM 24.6 °F - 20.1 °F 83% 30.36 in 7.0 mi Calm Calm - N/A   Clear
7:55 AM 23.5 °F 16.4 °F 19.4 °F 84% 30.36 in 7.0 mi SSW 5.8 mph - N/A   Clear
8:15 AM 25.0 °F - 20.7 °F 84% 30.36 in 7.0 mi Calm Calm - N/A   Clear
8:35 AM 26.4 °F 22.4 °F 22.5 °F 85% 30.37 in 10.0 mi East 3.5 mph - N/A   Clear
8:55 AM 28.9 °F 22.8 °F 23.9 °F 81% 30.38 in 10.0 mi SE 5.8 mph - N/A   Clear
9:15 AM 30.4 °F 25.6 °F 23.9 °F 77% 30.39 in 10.0 mi East 4.6 mph - N/A   Clear
9:35 AM 31.3 °F 24.7 °F 25.3 °F 79% 30.39 in 10.0 mi ESE 6.9 mph - N/A   Clear
9:55 AM 32.2 °F - 25.5 °F 76% 30.38 in 10.0 mi Calm Calm - N/A   Clear
10:15 AM 32.7 °F - 25.2 °F 74% 30.38 in 10.0 mi Calm Calm - N/A   Clear
10:35 AM 34.2 °F - 26.6 °F 74% 30.37 in 10.0 mi Calm Calm - N/A   Clear
10:55 AM 35.2 °F - 27.1 °F 72% 30.37 in 10.0 mi Calm Calm - N/A   Clear
11:15 AM 36.9 °F - 27.0 °F 67% 30.36 in 10.0 mi Calm Calm - N/A   Clear
11:35 AM 37.9 °F 35.5 °F 26.2 °F 63% 30.36 in 10.0 mi NE 3.5 mph - N/A   Clear
11:55 AM 38.7 °F 35.2 °F 26.6 °F 62% 30.35 in 10.0 mi East 4.6 mph - N/A   Clear
12:15 PM 39.4 °F 36.1 °F 27.1 °F 62% 30.34 in 10.0 mi ENE 4.6 mph - N/A   Clear
12:35 PM 39.7 °F 36.5 °F 27.9 °F 63% 30.34 in 10.0 mi East 4.6 mph - N/A   Clear
12:55 PM 39.9 °F 35.8 °F 27.7 °F 62% 30.34 in 10.0 mi ENE 5.8 mph - N/A   Clear
1:20 PM 40.1 °F 38.0 °F 27.1 °F 60% 30.33 in 10.0 mi ENE 3.5 mph - N/A   Clear
1:35 PM 40.3 °F 37.1 °F 27.5 °F 60% 30.32 in 10.0 mi East 4.6 mph - N/A   Clear
1:55 PM 40.8 °F 37.8 °F 28.8 °F 62% 30.32 in 10.0 mi East 4.6 mph - N/A   Clear
2:15 PM 41.5 °F 39.6 °F 28.2 °F 59% 30.32 in 10.0 mi ENE 3.5 mph - N/A   Clear
2:35 PM 41.4 °F - 27.3 °F 57% 30.33 in 10.0 mi Calm Calm - N/A   Clear
2:55 PM 41.5 °F - 25.7 °F 53% 30.33 in 10.0 mi Calm Calm - N/A   Clear
3:15 PM 41.2 °F - 26.8 °F 57% 30.33 in 10.0 mi Calm Calm - N/A   Clear
3:35 PM 40.8 °F 37.8 °F 27.1 °F 58% 30.33 in 10.0 mi ENE 4.6 mph - N/A   Clear
3:55 PM 38.5 °F 35.0 °F 27.9 °F 66% 30.34 in 10.0 mi East 4.6 mph - N/A   Clear
4:15 PM 37.2 °F 29.6 °F 27.5 °F 68% 30.34 in 10.0 mi SSE 11.5 mph - N/A   Clear
4:35 PM 36.9 °F 33.1 °F 27.1 °F 68% 30.33 in 7.0 mi SE 4.6 mph - N/A   Clear
4:55 PM 34.2 °F - 26.1 °F 72% 30.32 in 7.0 mi Calm Calm - N/A   Clear
5:15 PM 32.7 °F 29.6 °F 24.4 °F 72% 30.32 in 10.0 mi SW 3.5 mph - N/A   Clear
5:35 PM 32.2 °F - 23.9 °F 72% 30.32 in 10.0 mi Calm Calm - N/A   Clear
5:55 PM 32.0 °F - 24.8 °F 75% 30.32 in 10.0 mi Calm Calm - N/A   Clear
6:15 PM 32.5 °F - 25.2 °F 74% 30.32 in 7.0 mi Calm Calm - N/A   Clear
6:35 PM 32.0 °F - 25.2 °F 76% 30.32 in 4.0 mi Calm Calm - N/A   Clear
6:55 PM 30.9 °F - 24.4 °F 77% 30.32 in 5.0 mi Calm Calm - N/A   Clear
7:15 PM 30.0 °F - 24.3 °F 79% 30.32 in 7.0 mi Calm Calm - N/A   Clear
7:35 PM 30.6 °F - 24.4 °F 78% 30.32 in 5.0 mi Calm Calm - N/A   Clear
7:55 PM 30.7 °F 27.3 °F 24.4 °F 77% 30.32 in 5.0 mi South 3.5 mph - N/A   Clear
8:15 PM 29.8 °F 24.9 °F 23.2 °F 76% 30.31 in 10.0 mi WSW 4.6 mph - N/A   Clear
8:35 PM 28.6 °F 19.9 °F 22.6 °F 78% 30.33 in 7.0 mi ESE 9.2 mph - N/A   Clear
8:55 PM 30.9 °F 25.2 °F 23.9 °F 75% 30.35 in 10.0 mi ESE 5.8 mph - N/A   Clear
9:15 PM 32.0 °F 27.5 °F 24.1 °F 73% 30.34 in 10.0 mi ESE 4.6 mph - N/A   Clear
9:35 PM 30.7 °F 27.3 °F 24.1 °F 76% 30.34 in 7.0 mi South 3.5 mph - N/A   Clear
9:55 PM 28.6 °F 20.7 °F 22.8 °F 79% 30.34 in 7.0 mi SW 8.1 mph - N/A   Clear
10:15 PM 28.6 °F 21.5 °F 22.8 °F 79% 30.34 in 10.0 mi SSW 6.9 mph - N/A   Clear
10:35 PM 29.3 °F 22.3 °F 22.6 °F 76% 30.35 in 10.0 mi SW 6.9 mph - N/A   Clear
10:55 PM 30.0 °F - 22.8 °F 75% 30.35 in 10.0 mi Calm Calm - N/A   Clear
11:15 PM 30.4 °F 25.6 °F 23.2 °F 75% 30.34 in 10.0 mi SE 4.6 mph - N/A   Clear
11:35 PM 31.1 °F 24.5 °F 23.2 °F 72% 30.34 in 7.0 mi SE 6.9 mph - N/A   Clear
11:55 PM 30.9 °F 25.2 °F 23.4 °F 74% 30.34 in 10.0 mi SE 5.8 mph - N/A   Clear